Le nostre stazioni meteo in Italia

Pubblicità
Il mio iltempo24.it
Decimomannu, Italia (16546): Temperatura & dewpoint: 08.11.2019 22:00:00 - 14.11.2019 22:00:00 (CET)Decimomannu, Italia (16546): velocità del vento: 08.11.2019 22:00:00 - 14.11.2019 22:00:00 (CET)Decimomannu, Italia (16546): direzione del vento: 08.11.2019 22:00:00 - 14.11.2019 22:00:00 (CET)Decimomannu, Italia (16546): reduced air pressure: 08.11.2019 22:00:00 - 14.11.2019 22:00:00 (CET)Decimomannu, Italia (16546): visibility: 08.11.2019 22:00:00 - 14.11.2019 22:00:00 (CET)
Data & Tempo tt [°C] td [°C] ff [km/h] ff [kn] dd ppp [hPa] vv [km]
14.11.2019 22:00:00 - - - - - - -
14.11.2019 21:00:00 15,0 13,0 16 9 SE - 10
14.11.2019 20:00:00 15,0 12,0 16 9 SSE - 10
14.11.2019 19:00:00 13,8 11,9 11 6 ESE 1004,7 20
14.11.2019 18:00:00 14,0 12,0 11 6 SE - 10
14.11.2019 17:00:00 15,0 12,0 11 6 SSE - 10
14.11.2019 16:00:00 16,2 12,0 15 8 SE 1005,4 20
14.11.2019 15:00:00 17,0 11,0 16 9 SSE - 10
14.11.2019 14:00:00 18,0 11,0 8 4 SSE - 10
14.11.2019 13:00:00 17,8 9,9 5 3 SSE 1006,9 20
14.11.2019 12:00:00 17,0 9,0 4 2 SE - 10
14.11.2019 11:00:00 16,0 10,0 4 2 OSO - 10
14.11.2019 10:00:00 13,2 10,4 2 1 NNO 1008,7 20
14.11.2019 09:00:00 11,0 8,0 8 4 NNO - 10
14.11.2019 08:00:00 9,0 7,0 5 3 ONO - 10
14.11.2019 07:00:00 9,2 6,8 2 1 NO 1007,3 20
14.11.2019 06:00:00 10,0 8,0 8 4 NNO - 10
14.11.2019 05:00:00 11,0 9,0 11 6 NNO - 10
14.11.2019 04:00:00 11,0 8,6 9 5 NNE 1006,5 20
14.11.2019 03:00:00 11,0 8,0 5 3 NNO - 10
14.11.2019 02:00:00 11,0 8,0 8 4 NO - 10
14.11.2019 01:00:00 11,8 9,4 9 5 N 1006,3 20
14.11.2019 00:00:00 12,0 10,0 8 4 N - 10
13.11.2019 23:00:00 12,0 10,0 9 5 NO - 7
13.11.2019 22:00:00 13,0 10,0 8 4 NNO 1006,6 7
13.11.2019 21:00:00 13,0 10,0 5 3 N - 6
13.11.2019 20:00:00 13,0 10,0 4 2 ENE - 6
13.11.2019 19:00:00 13,8 10,8 4 2 E 1006,1 4,0
13.11.2019 18:00:00 15,0 12,0 4 2 SE - 4,0
13.11.2019 17:00:00 15,0 13,0 5 3 ONO - 6
13.11.2019 16:00:00 16,6 12,5 11 6 OSO 1004,8 10
13.11.2019 15:00:00 17,0 12,0 11 6 ONO - 10
13.11.2019 14:00:00 17,0 11,0 15 8 NO - 10
13.11.2019 13:00:00 17,0 10,8 21 11 NO 1004,7 15
13.11.2019 12:00:00 18,0 13,0 24 13 NO - 10
13.11.2019 11:00:00 17,0 11,0 22 12 NO - 10
13.11.2019 10:00:00 15,8 10,8 21 11 ONO 1004,9 10
13.11.2019 09:00:00 16,0 11,0 22 12 ONO - 10
13.11.2019 08:00:00 14,0 10,0 24 13 ONO - 10
13.11.2019 07:00:00 14,0 10,2 21 11 NO 1002,8 15
13.11.2019 06:00:00 14,0 10,0 26 14 ONO - 10
13.11.2019 05:00:00 14,0 10,0 28 15 ONO - 10
13.11.2019 04:00:00 14,0 10,4 29 16 ONO 1001,2 15
13.11.2019 03:00:00 14,0 10,0 28 15 ONO - 10
13.11.2019 02:00:00 14,0 9,0 31 17 ONO - 10
13.11.2019 01:00:00 14,0 8,0 29 16 ONO 999,5 15
13.11.2019 00:00:00 14,0 9,0 28 15 ONO - 10
12.11.2019 23:00:00 14,0 9,0 37 20 ONO - 10
12.11.2019 22:00:00 14,8 10,6 37 20 NO 997,9 15
12.11.2019 21:00:00 15,0 11,0 39 21 ONO - 8
12.11.2019 20:00:00 13,0 10,0 28 15 NO - 5
12.11.2019 19:00:00 14,6 11,4 29 16 ONO 995,2 5
12.11.2019 18:00:00 15,0 12,0 31 17 NO - 8
12.11.2019 17:00:00 15,0 11,0 34 18 ONO - 9
12.11.2019 16:00:00 15,0 11,6 41 22 NO 993,6 9
12.11.2019 15:00:00 15,0 12,0 35 19 ONO - 10
12.11.2019 14:00:00 15,0 12,0 42 23 NO - 9
12.11.2019 13:00:00 15,0 11,6 31 17 NO 993,6 9
12.11.2019 12:00:00 15,0 12,0 31 17 NO - 10
12.11.2019 11:00:00 14,0 11,0 31 17 NO - 10
12.11.2019 10:00:00 14,0 10,0 34 18 NO 994,8 20
12.11.2019 09:00:00 13,0 9,0 21 11 NO - 10
12.11.2019 08:00:00 11,0 8,0 13 7 NNE - 10
12.11.2019 07:00:00 11,4 8,2 9 5 N 996,3 20
12.11.2019 06:00:00 12,0 8,0 13 7 NNO - 10
12.11.2019 05:00:00 12,0 8,0 8 4 N - 10
12.11.2019 04:00:00 11,8 8,7 15 8 NNO 998,7 12
12.11.2019 03:00:00 12,0 9,0 13 7 NNO - 10
12.11.2019 02:00:00 12,0 9,0 5 3 NO - 10
12.11.2019 01:00:00 12,0 9,2 9 5 N 1002,1 12
12.11.2019 00:00:00 12,0 9,0 8 4 N - 10
11.11.2019 23:00:00 12,0 9,0 13 7 NO - 10
11.11.2019 22:00:00 12,4 9,6 8 4 N 1003,6 12
11.11.2019 21:00:00 13,0 10,0 8 4 N - 10
11.11.2019 20:00:00 13,0 10,0 9 5 N - 10
11.11.2019 19:00:00 13,4 10,8 9 5 NNE 1004,0 15
11.11.2019 18:00:00 14,0 11,0 8 4 SE - 10
11.11.2019 17:00:00 15,0 12,0 9 5 ESE - 10
11.11.2019 16:00:00 16,0 12,7 13 7 SE 1004,0 7
11.11.2019 15:00:00 16,0 13,0 8 4 SE - 10
11.11.2019 14:00:00 17,0 14,0 13 7 SSE - 10
11.11.2019 13:00:00 16,4 13,3 15 8 SE 1004,9 15
11.11.2019 12:00:00 16,0 13,0 13 7 SSE - 10
11.11.2019 11:00:00 16,0 13,0 18 10 SSE - 10
11.11.2019 10:00:00 14,2 11,2 8 4 ESE 1005,9 15
11.11.2019 09:00:00 12,0 9,0 5 3 ESE - 10
11.11.2019 08:00:00 12,0 8,0 13 7 SE - 7
11.11.2019 07:00:00 12,2 8,7 9 5 ESE 1004,8 8
11.11.2019 06:00:00 12,0 9,0 15 8 ESE - 8
11.11.2019 05:00:00 12,0 9,0 13 7 ESE - 8
11.11.2019 04:00:00 12,4 9,0 15 8 ESE 1004,8 8
11.11.2019 03:00:00 12,0 9,0 15 8 E - 9
11.11.2019 02:00:00 12,0 9,0 15 8 ESE - 9
11.11.2019 01:00:00 12,6 9,2 11 6 E 1004,0 10
11.11.2019 00:00:00 13,0 9,0 5 3 NNO - 10
10.11.2019 23:00:00 13,0 9,0 13 7 ESE - 10
10.11.2019 22:00:00 12,8 9,4 8 4 ESE 1003,9 10
10.11.2019 21:00:00 13,0 9,0 13 7 E - 10
10.11.2019 20:00:00 13,0 9,0 15 8 ESE - 10
10.11.2019 19:00:00 12,6 9,1 11 6 E 1003,8 15
10.11.2019 18:00:00 13,0 10,0 15 8 SE - 10
10.11.2019 17:00:00 14,0 10,0 15 8 ESE - 10
10.11.2019 16:00:00 13,8 10,0 15 8 ESE 1003,0 12
10.11.2019 15:00:00 14,0 10,0 13 7 SE - 10
10.11.2019 14:00:00 13,0 9,0 13 7 ESE - 10
10.11.2019 13:00:00 12,6 9,1 11 6 E 1005,3 15
10.11.2019 12:00:00 12,0 8,0 8 4 SE - 10
10.11.2019 11:00:00 11,0 8,0 8 4 E - 10
10.11.2019 10:00:00 8,8 5,5 9 5 E 1007,8 12
10.11.2019 09:00:00 8,0 5,0 4 2 NO - 10
10.11.2019 08:00:00 8,0 4,0 4 2 NNE - 10
10.11.2019 07:00:00 7,2 4,0 4 2 O 1009,9 20
10.11.2019 06:00:00 7,0 4,0 5 3 ENE - 10
10.11.2019 05:00:00 8,0 5,0 8 4 E - 10
10.11.2019 04:00:00 8,2 5,0 5 3 ESE 1011,0 12
10.11.2019 03:00:00 9,0 6,0 4 2 ESE - 10
10.11.2019 02:00:00 11,0 7,0 4 2 ONO - 10
10.11.2019 01:00:00 10,8 7,5 11 6 NO 1011,4 10
10.11.2019 00:00:00 10,0 6,0 5 3 ONO - 10
09.11.2019 23:00:00 9,0 6,0 8 4 ESE - 10
09.11.2019 22:00:00 10,8 7,3 11 6 ONO 1011,7 12
09.11.2019 21:00:00 11,0 8,0 11 6 O - 10
09.11.2019 20:00:00 11,0 8,0 13 7 OSO - 8
09.11.2019 19:00:00 11,4 7,9 8 4 O 1010,9 10
09.11.2019 18:00:00 12,0 7,0 4 2 NE - 10
09.11.2019 17:00:00 12,0 8,0 4 2 ONO - 10
09.11.2019 16:00:00 12,0 8,3 16 9 NO 1010,0 15
09.11.2019 15:00:00 12,0 8,0 8 4 NO - 10
09.11.2019 14:00:00 14,0 9,0 15 8 NNO - 10
09.11.2019 13:00:00 13,0 9,4 15 8 NO 1009,8 10
09.11.2019 12:00:00 12,0 8,0 13 7 N - 10
09.11.2019 11:00:00 12,0 8,0 8 4 O - 10
09.11.2019 10:00:00 11,4 8,1 21 11 O 1010,9 6
09.11.2019 09:00:00 10,0 7,0 4 2 NNO - 6
09.11.2019 08:00:00 10,0 6,0 2 1 - - 5
09.11.2019 07:00:00 9,6 6,3 8 4 OSO 1009,6 6
09.11.2019 06:00:00 10,0 7,0 5 3 E - 5
09.11.2019 05:00:00 10,0 7,0 5 3 NNE - 10
09.11.2019 04:00:00 10,0 6,7 21 11 N 1010,3 7
09.11.2019 03:00:00 11,0 7,0 5 3 SE - 10
09.11.2019 02:00:00 11,0 8,0 5 3 SSE - 10
09.11.2019 01:00:00 11,0 8,0 9 5 E 1010,5 10
09.11.2019 00:00:00 11,0 8,0 4 2 SE - 10
08.11.2019 23:00:00 12,0 8,0 8 4 N - 10
08.11.2019 22:00:00 12,4 8,9 8 4 SO 1010,3 10

tt = Temperatura
td = dewpoint
ff = velocità del vento
dd = direzione del vento
ppp = reduced air pressure
vv = visibility

Stazioni seguenti

WeatherPro
AMSI
MeteoEarth